Orbital Elements at Epoch 2459000.5 (2020-May-31.0) TDB
Reference: JPL 19 (heliocentric ecliptic J2000)
Element | Value | Uncertainty (1-sigma) | Units |
e | .1254320522523294 | 3.342e-08 | |
a | 2.187187769066751 | 7.5508e-09 | au |
q | 1.912844318531515 | 7.2665e-08 | au |
i | 4.578153494768578 | 3.1319e-06 | deg |
node | 254.9563386982078 | 5.3688e-05 | deg |
peri | 156.7156571144901 | 5.6056e-05 | deg |
M | 120.4293719301524 | 1.6841e-05 | deg |
tp | 2458605.263130811363 (2019-May-01.76313081) | 5.449e-05 | TDB |
period | 1181.483143418146 3.23 | 6.1182e-06 1.675e-08 | d yr |
n | .304701765747148 | 1.5779e-09 | deg/d |
Q | 2.461531219601987 | 8.4979e-09 | au |
|
| | Orbit Determination Parameters
Additional Information
|